Mid-South Regional Weather Roundup Report



Select Weather Forecast Office:  



NWS Memphis Weather Forecast Office

NWS - Mid-South Regional Weather Roundup Report
County Warning Area [CWA]: MEG
Regional NWS Weather Office: Memphis, TN

000
ASUS44 KMEG 230100
RWRMEG
MEMPHIS CWA HOURLY WEATHER ROUNDUP
NATIONAL WEATHER SERVICE MEMPHIS TN
800 PM CDT MON MAY 22 2017

...WEST TENNESSEE...

CITY           SKY/WX    TMP DP  RH WIND       PRES   REMARKS
MEMPHIS INTL   CLOUDY    69  60  73 NW3       29.95F
NWS MEMPHIS      N/A     67 N/A N/A MISG        N/A
JACKSON        CLOUDY    67  61  81 CALM      29.96R
DYERSBURG      CLOUDY    68  58  70 CALM      29.97S


...EASTERN ARKANSAS...

CITY           SKY/WX    TMP DP  RH WIND       PRES   REMARKS
JONESBORO      CLOUDY    69  51  52 S3        29.96S
WEST MEMPHIS   CLOUDY    66  61  84 N3        29.94F
BATESVILLE     CLOUDY    68  54  60 S6        29.96F
NEWPORT        CLOUDY    68  56  65 S5        29.96F
WALNUT RIDGE   CLOUDY    72  52  49 CALM      29.96S
BLYTHEVILLE    CLOUDY    70  56  61 CALM      29.96S
SEARCY         CLOUDY    66  60  81 CALM      29.98S
STUTTGART      CLOUDY    68  48  49 CALM      29.97S
PINE BLUFF     CLOUDY    66  57  72 CALM      29.96F
MONTICELLO     CLOUDY    63  60  90 NW3       29.95S


...NORTH MISSISSIPPI...

CITY           SKY/WX    TMP DP  RH WIND       PRES   REMARKS
TUPELO         CLOUDY    70  64  81 CALM      29.92F
TUNICA         CLOUDY    66  59  77 CALM      29.96S
CLARKSDALE       N/A     68  63  83 MISG      29.95F
GREENWOOD      LGT RAIN  66  64  93 CALM      29.92S
COLUMBUS       HVY RAIN  70  70 100 W7        29.94R FOG
STARKVILLE     RAIN      66  64  94 CALM      29.96F


...SOUTHEAST MISSOURI...

CITY           SKY/WX    TMP DP  RH WIND       PRES   REMARKS
KENNETT        CLOUDY    72  57  60 SW3       29.95R
MALDEN         CLOUDY    73  46  38 CALM      29.97R
WEST PLAINS    PTCLDY    65  55  70 CALM      29.97S
POPLAR BLUFF   CLOUDY    70  59  68 CALM      29.95S
CAPE GIRARDEAU CLOUDY    68  48  48 E6        29.96S


...NORTHWEST ALABAMA...

CITY           SKY/WX    TMP DP  RH WIND       PRES   REMARKS
MUSCLE SHOALS  CLOUDY    71  61  70 CALM      29.96R


...MIDDLE TENNESSEE...

CITY           SKY/WX    TMP DP  RH WIND       PRES   REMARKS
NASHVILLE      CLOUDY    70  52  52 NE6       29.97F
CLARKSVILLE    CLOUDY    67  51  56 E6        29.98R


...WESTERN KENTUCKY...

CITY           SKY/WX    TMP DP  RH WIND       PRES   REMARKS
PADUCAH        CLOUDY    69  52  54 CALM      29.96S
FORT CAMPBELL  CLOUDY    68  51  54 E5        29.97R


...CENTRAL ARKANSAS...

CITY           SKY/WX    TMP DP  RH WIND       PRES   REMARKS
LITTLE ROCK    CLOUDY    66  56  70 CALM      29.96F


SKY/WX REPORTED AS FAIR MEANS FEW OR NO CLOUDS BELOW
12 THOUSAND FEET.

Mid-South Regional Weather Roundup Report from: NOAA-NWS